Wind_Speed
36 36 36 37 37 38 38 40 41 42 42 43 44 45 46 48 48 49 49 50 50 51 52 53 54 55 56 56 57 58 58 59 60 60 61 61 62 62
36 36 36 37 37 37 39 40 42 43 44 45 46 47 48 49 50 51 51 52 53 54 55 56 57 58 59 60 60 61 61 62 63 63 64 64 65 66
36 36 36 37 37 38 40 41 43 44 45 46 48 49 50 52 52 53 54 55 56 58 59 59 60 61 62 63 63 63 64 65 65 66 67 68 68 69
36 36 36 37 38 39 41 43 44 45 47 48 50 51 52 54 55 56 57 58 59 60 61 62 63 64 64 65 65 66 67 67 68 68 69 69 70 69
36 36 37 38 39 41 42 44 45 47 48 50 51 53 54 56 57 58 59 61 61 62 63 64 65 65 66 67 68 68 68 68 68 68 68 68 68 67
36 37 38 39 41 42 43 45 47 48 50 51 53 54 56 58 59 60 61 63 63 65 65 66 66 67 68 68 68 68 68 68 67 67 66 66 65 64
37 37 38 40 41 43 44 46 48 50 51 53 55 57 58 60 61 63 64 65 65 66 66 67 68 68 69 68 68 68 67 66 65 63 62 61 60 59
37 38 39 40 42 44 46 48 49 51 53 55 57 58 60 62 64 65 65 66 66 66 66 67 68 68 68 67 66 65 63 62 60 59 57 56 54 53
37 38 39 41 43 45 47 49 51 53 55 56 58 60 62 63 65 65 65 65 66 67 68 67 67 66 65 64 63 61 59 58 56 54 53 51 49 48
37 39 40 42 44 46 47 49 52 54 55 58 60 62 63 64 65 65 65 66 67 67 67 66 64 63 62 61 59 58 56 54 52 49 47 46 43 42
38 39 41 42 44 46 48 50 53 54 57 59 61 62 63 64 65 65 66 66 65 65 65 64 62 61 59 57 56 54 52 49 46 43 42 39 38 37
38 40 41 43 45 47 49 52 53 56 58 60 61 63 64 65 65 65 65 65 64 63 62 61 59 57 54 52 51 49 46 43 41 39 37 35 33 31
39 40 42 44 46 49 51 52 55 57 59 61 62 63 64 64 64 64 63 63 62 61 59 57 54 53 51 49 46 44 41 39 37 35 33 31 29 27
39 41 43 45 47 49 51 54 56 59 60 62 63 63 64 63 62 62 61 60 59 57 54 53 51 50 48 45 41 38 36 35 32 30 28 26 25 23
40 42 44 46 48 50 52 55 57 59 61 61 62 63 63 62 60 59 58 58 56 53 51 50 49 46 43 39 36 34 32 30 28 26 24 22 21 18
40 43 45 47 49 51 53 56 57 59 60 61 62 62 61 59 58 57 56 54 52 50 49 47 45 42 38 34 32 30 28 27 25 22 21 19 17 16
41 43 45 47 49 52 54 56 58 59 60 60 60 60 58 56 55 54 53 50 49 47 45 43 40 37 33 31 29 27 25 23 21 19 18 16 15 14
41 44 46 48 50 52 55 58 59 59 59 59 58 56 55 53 53 52 50 47 45 43 41 38 35 32 31 29 26 24 22 19 18 17 15 14 13 12
42 44 46 49 51 54 57 59 58 57 57 56 55 54 53 51 50 48 45 43 41 39 37 34 31 29 27 25 23 21 18 17 15 14 13 12 11 11
42 44 47 51 53 56 58 58 57 56 55 54 53 51 49 47 46 43 40 38 36 35 33 30 28 26 23 21 19 18 16 15 14 13 12 11 11 10
44 47 50 52 54 57 58 57 55 53 53 52 50 48 45 43 41 39 37 35 34 32 30 27 25 22 20 18 17 16 15 13 12 11 10 10 9 9
46 49 51 53 55 57 57 55 53 51 50 49 47 44 42 40 38 36 35 33 32 30 26 24 21 19 17 16 15 14 13 11 10 10 9 8 7 7
47 50 52 54 55 56 55 53 50 49 48 46 43 41 38 37 36 34 33 31 29 26 23 20 18 17 16 15 14 12 10 9 9 8 8 7 6 6
Wind_Direction
289 291 293 295 296 298 299 300 301 302 302 303 304 304 303 304 304 304 303 302 301 301 300 300 298 297 296 295 294 293 291 290 288 287 285 284 283 281
288 290 292 294 296 297 299 300 301 301 301 302 303 303 303 303 303 303 303 302 302 301 300 299 298 297 297 296 295 293 291 290 289 287 286 284 284 282
288 290 292 294 296 298 299 299 300 300 301 302 303 303 303 303 304 304 303 302 302 301 300 300 299 299 298 297 295 294 292 291 290 288 287 286 284 283
288 290 292 294 296 297 298 299 300 301 302 302 303 303 304 304 304 304 303 303 302 302 301 301 300 300 299 298 296 295 293 292 290 289 288 287 286 284
287 290 292 294 296 297 298 299 300 301 302 303 303 304 304 304 304 304 304 303 303 303 302 302 301 300 299 299 297 296 295 293 292 291 289 288 286 285
287 290 292 294 295 297 298 299 300 301 302 303 304 304 304 304 304 304 304 304 304 303 303 302 301 301 300 299 299 298 297 295 294 293 291 289 288 286
288 291 292 294 296 297 298 299 300 302 303 304 304 305 305 305 305 305 305 304 304 304 303 303 302 302 301 300 299 299 298 297 296 294 292 290 289 287
289 291 293 295 296 297 299 300 301 303 304 304 305 306 306 306 306 306 305 305 305 305 305 304 304 303 302 301 301 300 300 299 297 296 294 292 290 288
290 292 294 295 297 298 300 301 302 304 305 305 306 306 306 306 306 307 307 307 307 306 306 306 305 304 304 303 302 302 301 300 299 297 295 293 291 289
292 293 295 297 298 299 301 302 304 304 305 306 307 307 307 307 307 307 307 307 308 308 308 307 306 306 306 304 304 303 302 301 300 298 297 295 292 290
293 295 296 297 299 301 302 303 304 305 306 307 307 307 308 308 308 308 308 309 309 309 309 308 308 308 307 306 305 304 303 302 301 300 299 297 295 293
295 296 298 299 301 302 304 304 305 306 307 308 308 308 308 308 309 309 310 310 310 310 310 309 310 309 309 308 306 305 304 303 303 302 301 300 297 296
296 297 299 300 302 304 305 306 307 308 308 308 308 309 309 310 310 310 311 311 312 312 311 312 312 312 311 310 308 306 305 305 304 303 303 301 299 298
297 299 300 302 303 305 307 307 308 309 310 309 310 310 310 311 311 311 312 312 313 313 313 313 314 314 313 312 311 309 308 307 306 305 305 303 301 299
298 300 302 304 305 306 308 309 310 311 311 311 311 311 311 311 311 312 313 313 314 314 314 314 314 314 314 314 313 312 311 310 308 307 306 305 303 301
299 302 304 305 306 308 310 311 312 312 312 312 312 312 312 312 313 313 313 314 314 314 315 315 315 315 315 315 315 314 313 312 311 309 309 308 306 303
302 304 305 306 308 310 312 313 313 313 313 312 313 313 313 314 314 314 314 315 315 315 316 316 316 315 315 317 316 316 315 315 314 313 313 312 309 307
303 305 307 308 310 312 313 314 314 313 313 313 314 314 315 315 315 315 315 316 316 316 316 317 316 316 316 317 317 317 318 318 317 316 316 315 313 311
305 306 308 310 312 313 315 315 314 313 314 314 315 315 316 316 317 317 317 317 318 318 318 318 318 318 318 318 318 319 320 320 319 319 318 318 317 315
307 308 310 312 313 314 316 315 314 314 315 315 316 316 317 317 318 319 319 320 320 320 320 319 320 321 321 321 321 321 322 322 322 322 322 322 322 321
309 310 312 313 314 315 316 316 315 315 316 316 316 317 317 318 320 321 321 321 322 321 321 321 321 322 322 323 324 324 325 325 325 327 328 327 328 330
310 312 313 314 315 317 317 316 315 315 316 316 316 317 317 318 320 321 322 322 322 323 322 322 323 324 324 326 326 326 327 329 332 334 335 335 337 341
311 313 314 315 316 317 317 317 316 316 316 316 317 317 318 319 320 321 321 322 323 324 324 324 325 325 326 327 328 328 329 333 337 341 344 346 350 354
Height
5724 5722 5719 5716 5712 5709 5705 5701 5697 5693 5689 5684 5679 5674 5668 5663 5658 5652 5647 5642 5636 5631 5625 5620 5614 5609 5604 5599 5593 5588 5584 5579 5575 5571 5567 5563 5560 5557
5716 5713 5711 5708 5704 5700 5697 5692 5688 5684 5679 5675 5669 5664 5658 5653 5647 5641 5636 5630 5624 5618 5612 5606 5600 5594 5588 5582 5577 5571 5566 5561 5556 5552 5548 5544 5540 5537
5708 5705 5702 5699 5696 5692 5688 5684 5679 5674 5670 5665 5659 5653 5647 5642 5636 5629 5623 5617 5611 5604 5598 5591 5584 5578 5571 5565 5559 5553 5547 5542 5537 5532 5527 5523 5518 5515
5700 5697 5694 5691 5687 5683 5679 5675 5670 5665 5660 5655 5649 5643 5636 5630 5623 5617 5610 5603 5596 5589 5582 5575 5568 5560 5553 5547 5540 5534 5527 5521 5516 5510 5505 5500 5496 5491
5691 5689 5686 5682 5679 5674 5670 5665 5660 5655 5649 5644 5638 5631 5625 5617 5611 5604 5596 5588 5581 5573 5566 5558 5550 5543 5535 5528 5520 5513 5507 5500 5494 5488 5483 5477 5473 5468
5683 5680 5677 5674 5670 5665 5661 5656 5650 5645 5639 5633 5626 5619 5612 5604 5597 5590 5582 5574 5566 5557 5549 5541 5533 5525 5516 5508 5500 5493 5486 5479 5473 5467 5461 5455 5450 5446
5675 5672 5668 5665 5660 5656 5651 5646 5640 5634 5627 5621 5614 5607 5599 5591 5583 5575 5567 5558 5550 5540 5532 5523 5515 5506 5498 5489 5481 5473 5466 5459 5452 5446 5440 5435 5430 5425
5666 5663 5659 5656 5651 5646 5641 5635 5629 5623 5616 5609 5602 5594 5586 5577 5569 5559 5550 5542 5534 5525 5515 5507 5496 5488 5478 5470 5461 5453 5446 5440 5433 5427 5421 5416 5411 5407
5657 5654 5650 5646 5641 5636 5630 5624 5618 5610 5604 5597 5589 5580 5572 5563 5554 5544 5534 5525 5516 5507 5498 5490 5479 5470 5461 5451 5443 5435 5429 5422 5416 5410 5404 5399 5395 5391
5648 5644 5640 5636 5631 5626 5620 5613 5606 5599 5592 5584 5576 5567 5557 5547 5538 5529 5519 5510 5501 5490 5480 5472 5462 5453 5445 5435 5426 5419 5412 5406 5400 5394 5389 5384 5380 5376
5639 5635 5630 5626 5621 5615 5609 5603 5595 5587 5579 5571 5562 5552 5543 5533 5523 5514 5504 5495 5486 5476 5465 5456 5447 5438 5430 5420 5411 5404 5397 5392 5386 5381 5376 5371 5367 5364
5630 5625 5620 5615 5610 5604 5598 5591 5583 5575 5567 5558 5549 5539 5529 5519 5509 5499 5489 5479 5469 5461 5451 5441 5432 5423 5416 5408 5399 5391 5385 5380 5375 5370 5365 5361 5357 5354
5620 5615 5610 5605 5599 5593 5586 5579 5571 5562 5554 5544 5535 5525 5515 5505 5495 5484 5474 5464 5455 5445 5436 5428 5419 5409 5401 5395 5388 5380 5374 5370 5365 5361 5356 5352 5349 5346
5610 5605 5600 5594 5588 5582 5575 5567 5559 5550 5540 5531 5521 5511 5502 5491 5481 5471 5461 5451 5442 5433 5423 5415 5407 5399 5391 5383 5377 5371 5366 5361 5356 5352 5349 5345 5342 5339
5600 5595 5590 5584 5577 5570 5563 5555 5546 5537 5527 5517 5507 5498 5488 5478 5468 5458 5448 5439 5430 5421 5412 5404 5396 5389 5381 5374 5369 5363 5358 5354 5349 5346 5342 5339 5336 5334
5590 5585 5579 5573 5566 5559 5551 5543 5534 5524 5514 5504 5494 5484 5474 5464 5454 5445 5437 5428 5419 5411 5403 5394 5387 5380 5373 5367 5362 5357 5352 5348 5344 5341 5338 5335 5332 5330
5579 5574 5568 5562 5555 5547 5539 5530 5521 5511 5501 5491 5481 5471 5461 5451 5442 5434 5425 5417 5409 5402 5394 5386 5379 5372 5367 5362 5356 5351 5347 5343 5339 5336 5334 5331 5329 5327
5569 5564 5557 5551 5544 5536 5527 5518 5508 5498 5488 5478 5468 5459 5450 5441 5432 5423 5414 5407 5399 5392 5385 5379 5372 5366 5361 5356 5352 5347 5343 5339 5336 5333 5331 5329 5327 5325
5559 5553 5547 5540 5532 5524 5515 5505 5495 5486 5476 5466 5457 5448 5439 5430 5421 5413 5405 5397 5391 5384 5378 5372 5366 5361 5356 5352 5348 5344 5340 5337 5334 5331 5329 5327 5325 5323
5549 5543 5536 5529 5520 5512 5502 5493 5483 5474 5465 5455 5446 5438 5429 5421 5412 5404 5397 5390 5384 5378 5372 5366 5361 5356 5352 5348 5344 5341 5338 5335 5332 5329 5327 5325 5323 5321
5538 5532 5525 5517 5508 5500 5490 5480 5471 5462 5454 5445 5436 5428 5420 5412 5405 5398 5391 5384 5378 5372 5367 5362 5357 5353 5349 5345 5342 5339 5336 5333 5331 5328 5326 5324 5322 5320
5528 5521 5513 5505 5496 5487 5478 5469 5460 5452 5443 5435 5427 5419 5412 5405 5398 5392 5385 5379 5373 5367 5362 5358 5354 5350 5347 5343 5340 5337 5335 5332 5330 5327 5325 5323 5321 5320
5517 5509 5502 5493 5484 5475 5466 5457 5449 5441 5434 5426 5418 5411 5405 5398 5392 5386 5380 5374 5368 5363 5358 5354 5351 5348 5345 5342 5339 5336 5333 5331 5329 5327 5325 5323 5321 5320